Location: Newark
(51.0000°N, 11.4100°E)
Time: 02:11:25
(UTC+00:00)

ISS - Visible Passes

Search period start: 19 October 2019 00:00
Search period end: 29 October 2019 00:00
Orbit: 411 x 421 km, 51.6° (Epoch: 19 October)

Date Brightness Start Highest point End Pass type
(mag) Time Alt. Az. Time Alt. Az. Time Alt. Az.
24 Oct -0.7 04:51:00 10° SSE 04:52:28 12° SE 04:53:58 10° ESE visible
26 Oct -1.6 04:48:49 10° SSW 04:51:38 25° SE 04:54:28 10° E visible
27 Oct -1.2 04:00:53 10° S 04:03:12 17° SE 04:05:30 10° E visible
28 Oct -0.8 03:14:43 12° SE 03:14:48 12° SE 03:16:02 10° ESE visible
28 Oct -2.9 04:47:40 10° SW 04:50:54 46° SSE 04:54:09 10° E visible
